This is the latest recevied weather packets stored in our database for station/object Reichnbch. If no packets are shown the sender has not sent any weather packets the latest 10 day(s).
| Time | Temp. | Humidity | Pressure | Rain* | Wind** | Luminosity | Snow |
|---|---|---|---|---|---|---|---|
| 1777935730 | 14.44° C | 76% | 1012.8 hPa | 0 mm | - | - | - |
| 1777933935 | 14.44° C | 74% | 1013 hPa | 0 mm | - | - | - |
| 1777932129 | 14.44° C | 74% | 1013 hPa | 0 mm | - | - | - |
| 1777930329 | 15.56° C | 71% | 1013.2 hPa | 0 mm | - | - | - |
| 1777928529 | 16.11° C | 67% | 1013.3 hPa | 0 mm | - | - | - |
| 1777926729 | 16.11° C | 65% | 1013.5 hPa | 0 mm | - | - | - |
| 1777924929 | 16.67° C | 64% | 1013.7 hPa | 0 mm | - | - | - |
| 1777923129 | 16.67° C | 61% | 1013.4 hPa | 0 mm | - | - | - |
| 1777921329 | 16.67° C | 63% | 1013.1 hPa | 0 mm | - | - | - |
| 1777919529 | 17.78° C | 59% | 1012.9 hPa | 0 mm | - | - | - |
| 1777917734 | 18.33° C | 57% | 1012.8 hPa | 0 mm | - | - | - |
| 1777915929 | 18.33° C | 58% | 1012.5 hPa | 0 mm | - | - | - |
| 1777914130 | 19.44° C | 53% | 1012.4 hPa | 0 mm | - | - | - |
| 1777912332 | 20.56° C | 54% | 1012.4 hPa | 0 mm | - | - | - |
| 1777910530 | 21.11° C | 49% | 1012.4 hPa | 0 mm | - | - | - |
| 1777908732 | 21.67° C | 47% | 1012.4 hPa | 0 mm | - | - | - |
| 1777906930 | 22.22° C | 42% | 1012.5 hPa | 0 mm | - | - | - |
| 1777905129 | 22.78° C | 42% | 1012.7 hPa | 0 mm | - | - | - |
| 1777903330 | 23.33° C | 47% | 1012.9 hPa | 0 mm | - | - | - |
| 1777901532 | 21.67° C | 48% | 1013.2 hPa | 0 mm | - | - | - |
| 1777899735 | 21.67° C | 52% | 1013.3 hPa | 0 mm | - | - | - |
| 1777897935 | 21.11° C | 48% | 1013.6 hPa | 0 mm | - | - | - |
| 1777896130 | 20.56° C | 52% | 1014 hPa | 0 mm | - | - | - |
| 1777894331 | 20.56° C | 57% | 1014.1 hPa | 0 mm | - | - | - |
| 1777892530 | 20.56° C | 56% | 1014.3 hPa | 0 mm | - | - | - |
* Rain since midnight (hover to see other rain measurements)
** Current wind speed in m/s (hover to see current wind gust speed)